SCOUT A DEB

Satellite information

Favourite Embed

Satellite Type and Status

DEBRISIN ORBIT

Key statistics

Satellite SCOUT A DEB at a glance.

Uptime

21651

Days in orbit

Revolutions

≈ 13.8

Per day

Orbit

SSO

Sun Synchronous Orbit

Inclination

90.1

Latest

Satellite identification and parameters

Extended collection of information and parameters for SCOUT A DEB.

Object identification

Identified? True

Debris? True

Object name: SCOUT A DEB

International designator: 1966-024D

Object number (NORAD): 2386

Object ID (CCSDS): 2386

Country: UNITED STATES OF AMERICA (US)

Current information (Y/N): Y

RCS size: SMALL

Orbital parameters

Period: 104.244 minutes

Inclination: 90.0519 deg

SMA: 7337.137 km

Apoapsis: 1052.094 km

Periapsis: 865.911 km

RAAN: 329.616 deg

Eccentricy: 0.0126877

Argument of periapsis: 323.6459 deg

Mean anomaly: 35.6139 deg

Mean motion: 13.81378856 rev/day

Mean motion (dot): 0.00000221 rev/day2

B* drag term: 0.00018824 1/REarth

Two-line elements (TLE)

Creation date: July 3, 2025, 3:40 a.m.

Reference frame: TEME

Reference center: EARTH

Epoch: July 2, 2025, 4:33 p.m. UTC

TLE line 0: 0 SCOUT A DEB

TLE line 1: 1 02386U 66024D 25183.68971827 .00000221 00000-0 18824-3 0 9995

TLE line 2: 2 02386 90.0519 329.6160 0126877 323.6459 35.6139 13.81378856273699

Live tracking on map

Real-time ground track for satellite SCOUT A DEB.

In-orbit conjunctions

A list of the most updated potential collisions computed for object SCOUT A DEB.

Target Orbit TCA Probability of collision Miss distance Type
CZ-4C DEB SSO 2024-12-27 15:02:09 0.0001644696 96.0 (m) DEBRIS
DELTA 1 DEB SSO 2024-10-10 15:32:59 0.0001056806 362.0 (m) DEBRIS
SL-12 R/B(AUX MOTOR) HEO 2024-09-06 09:04:11 0.000675935 134.0 (m) ROCKET BODY

Associated space launch

The Transit-O series of satellites that closely followed the design of Transit 5C-1 were also called “Oscars” (Oscar is the phonetic alphabet for “O”, i. e., operational). They were also called NNS (Navy Navigation Satellite) or shortened NavSat.

SCOUT A DEB was lifted into orbit during the mission ‘Scout A | Transit-O 8’, on board a Scout A space rocket.

The launch took place on March 26, 1966, 3:31 a.m. from Space Launch Complex 5.

For more information about the launch, click the button.

Launch to space Scout A | Transit-O 8
Scout A | Transit-O 8

Agency: N/A

Status: Launch Successful

Launch date: March 26, 1966, 3:31 a.m. UTC

Rocket: Scout A

Launch pad: Space Launch Complex 5

Location: Vandenberg SFB, CA, USA

...

Latest news about this satellite

There are no fresh news available about this satellite. Check back as we update our databases every day.


Newsletter sign-up

Weekly statistics, charts and insights to help you stay on top of the space industry.